Regional Weather Roundup
Issued by NWS Charleston, WV

Home | Current Version | Previous Version | Text Only | Print | Product List | Glossary On
Versions: 1 2 3 4 5 6 7 8 9 10 11 12 13 14 15 16 17 18 19 20 21 22 23 24 25 26 27 28 29 30 31 32 33 34 35 36 37 38 39 40 41 42 43 44 45 46 47 48 49 50
000
ASUS41 KRLX 280510
RWRRLX
West Virginia Regional Weather Roundup
National Weather Service Charleston WV
100 AM EDT SUN MAY 28 2017

Note: "fair" indicates few or no clouds below 12,000 feet with no
significant weather and/or obstructions to visibility.

WVZ003-280600-
Northern Panhandle of West Virginia

CITY           SKY/WX    TMP DP  RH WIND       PRES   REMARKS
WHEELING       MOCLDY    62  59  90 E6        29.87F
$$

WVZ009-280600-
Northwest West Virginia

CITY           SKY/WX    TMP DP  RH WIND       PRES   REMARKS
PARKERSBURG    PTCLDY    65  63  93 E5        29.87F FOG
$$

WVZ006-280600-
Western West Virginia

CITY           SKY/WX    TMP DP  RH WIND       PRES   REMARKS
HUNTINGTON     CLOUDY    67  64  90 S5        29.84F
$$

WVZ015-280600-
West Central West Virginia

CITY           SKY/WX    TMP DP  RH WIND       PRES   REMARKS
CHARLESTON     CLOUDY    69  66  90 CALM      29.84F
$$

WVZ022-031-280600-
North Central West Virginia

CITY           SKY/WX    TMP DP  RH WIND       PRES   REMARKS
CLARKSBURG     CLOUDY    64  62  93 CALM      29.88R
MORGANTOWN     PTCLDY    64  61  90 NE5       29.88F
$$

WVZ025-035-042-045-280600-
Southern West Virginia

CITY           SKY/WX    TMP DP  RH WIND       PRES   REMARKS
BECKLEY        CLOUDY    64  62  93 S5        29.94F
LOGAN          MOCLDY    68  66  94 CALM      29.87F
BLUEFIELD      CLOUDY    60  58  92 SW7       29.97S
LEWISBURG      CLOUDY    61  60  96 CALM      29.94F
$$

WVZ047-280600-
Northern Mountains of West Virginia

CITY           SKY/WX    TMP DP  RH WIND       PRES   REMARKS
ELKINS         CLOUDY    61  59  93 CALM      29.91F FOG
$$

WVZ052-280600-
Eastern Panhandle of West Virginia

CITY           SKY/WX    TMP DP  RH WIND       PRES   REMARKS
MARTINSBURG    FOG       58  57  97 CALM      29.89F VSB 1/4
PETERSBURG     CLOUDY    65  64  96 CALM      29.91F
$$



USA.gov is the U.S. government's official web portal to all federal, state and local government web resources and services.